Погода в Каргалейке

Россия / Пензенская область     52°40′49″N   45°31′03″E
темп.,
°C
ветер,
м/с
пор.,
м/с
влажн.,
%
обл.,
%
осадки,
мм/ч
давл.,
гПа
погр.,
м
19 апреля, пн
пн1900:00+8св4107395 0.0 1019288
03:00+7всв41074100 0.0 1018283
06:00+6всв51179100 0.0 1018417
09:00+9в81264100 0.0 1019597
12:00+11в81054100 0.0 10181119
15:00+11в7953100 0.0 10181418
18:00+10в6964100 0.1 10191213
21:00+6в81479100 0.3 1020826
20 апреля, вт
вт2000:00+4в81487100 1.0 1021682
03:00+3в81588100 1.6 1021677
06:00+3вюв81589100 0.9 1021692
09:00+2вюв101788100 1.4 1022673
12:00+3вюв91777100 0.1 1023749
15:00+4вюв101878100 0.1 1021853
18:00+5вюв101978100 0.3 1018961
21:00+5вюв122280100 3.0 1016948
21 апреля, ср
ср2100:00+5юв14258395 2.4 1014913
03:00+5юв122388100 2.8 1013918
06:00+4юв122290100 0.7 1012895
09:00+6ююв111990100 1.6 1014771
12:00+6ююв91690100 0.0 1015747
15:00+9ююв81285100 0.0 1016730
18:00+7юв71394100 0.0 1017530
21:00+7ююв61397100 0.2 1019508
22 апреля, чт
чт2200:00+6ююв5119889 0.2 1019332
03:00+6ю589594 0.3 1020306
06:00+6ююв4998100 0.4 1021331
09:00+7ююв469599 0.4 1022351
12:00+10ююв4581100 0.0 1022487
15:00+14ююв446153 1.3 1021833
18:00+11юв467990 1.4 1023158
21:00+9юв4988100 1.5 1023240
23 апреля, пт
пт2300:00+8ююв3792100 0.1 1023174
03:00+7юв3893100 0.1 1023207
06:00+6юв489358 0.0 1024233
09:00+10вюв447527 0.0 1023609
12:00+13юв326570 0.4 10221074
15:00+12юв436750 1.1 1021869
18:00+11вюв34735 0.0 1020332
21:00+8юв37863 0.0 1020159